UAL46 KSAN-KSFO

Flight info

Callsign UAL46
Flight time 1h 9m
Altitude 38000
Route PADRZ2 IKAYE RIZIN SPLNT STOKD SERFR SERFR4
Aircraft B738/M-SDE2E3FGHIRWXY/LB1

Departure

Time 2026-05-03 20:58
Airport San Diego International Airport (KSAN)

Arrival

Time 2026-05-03 22:07
Airport San Francisco International Airport (KSFO)
Time Latitude Longitude Altitude Speed Heading
2026-05-03 20:37 32.73379 -117.20346 22 ft 0 kts 262°
2026-05-03 20:45 32.73380 -117.20340 22 ft 2 kts 262°
2026-05-03 20:45 32.73381 -117.20321 22 ft 2 kts 270°
2026-05-03 20:46 32.73380 -117.20301 21 ft 2 kts 284°
2026-05-03 20:46 32.73373 -117.20283 26 ft 2 kts 317°
2026-05-03 20:46 32.73359 -117.20274 22 ft 2 kts 345°
2026-05-03 20:46 32.73353 -117.20272 22 ft 0 kts 347°
2026-05-03 20:47 32.73355 -117.20272 22 ft 1 kts 347°
2026-05-03 20:47 32.73361 -117.20274 25 ft 1 kts 346°
2026-05-03 20:47 32.73371 -117.20277 26 ft 2 kts 346°
2026-05-03 20:48 32.73382 -117.20280 23 ft 2 kts 345°
2026-05-03 20:48 32.73392 -117.20284 23 ft 0 kts 345°
2026-05-03 20:50 32.73395 -117.20282 22 ft 1 kts 18°
2026-05-03 20:51 32.73428 -117.20266 23 ft 10 kts 17°
2026-05-03 20:51 32.73508 -117.20237 26 ft 12 kts 19°
2026-05-03 20:51 32.73538 -117.20148 24 ft 15 kts 102°
2026-05-03 20:51 32.73506 -117.20015 25 ft 19 kts 106°
2026-05-03 20:52 32.73466 -117.19852 29 ft 22 kts 107°
2026-05-03 20:52 32.73420 -117.19659 25 ft 26 kts 105°
2026-05-03 20:52 32.73376 -117.19479 30 ft 22 kts 104°
2026-05-03 20:52 32.73333 -117.19304 23 ft 22 kts 107°
2026-05-03 20:53 32.73294 -117.19134 24 ft 21 kts 105°
2026-05-03 20:53 32.73253 -117.18969 28 ft 20 kts 106°
2026-05-03 20:53 32.73214 -117.18811 27 ft 20 kts 105°
2026-05-03 20:53 32.73178 -117.18656 33 ft 19 kts 105°
2026-05-03 20:54 32.73141 -117.18506 34 ft 19 kts 107°
2026-05-03 20:54 32.73079 -117.18256 31 ft 11 kts 105°
2026-05-03 20:54 32.73059 -117.18169 28 ft 11 kts 104°
2026-05-03 20:55 32.73067 -117.18128 28 ft 0 kts 57°
2026-05-03 20:56 32.73071 -117.18122 28 ft 3 kts 49°
2026-05-03 20:56 32.73104 -117.18110 27 ft 7 kts 358°
2026-05-03 20:56 32.73153 -117.18147 30 ft 9 kts 308°
2026-05-03 20:56 32.73164 -117.18176 30 ft 0 kts 288°
2026-05-03 20:57 32.73184 -117.18256 32 ft 36 kts 285°
2026-05-03 20:57 32.73318 -117.18807 23 ft 101 kts 286°
2026-05-03 20:57 32.73570 -117.19818 39 ft 150 kts 289°
2026-05-03 20:57 32.73881 -117.21018 595 ft 151 kts 288°
2026-05-03 20:58 32.74301 -117.22204 1124 ft 167 kts 301°
2026-05-03 20:58 32.75043 -117.23382 1500 ft 190 kts 305°
2026-05-03 20:58 32.75863 -117.24744 1726 ft 214 kts 303°
2026-05-03 20:58 32.76733 -117.26247 2041 ft 228 kts 303°
2026-05-03 20:59 32.77675 -117.27888 2263 ft 249 kts 303°
2026-05-03 20:59 32.78665 -117.29620 2963 ft 254 kts 303°
2026-05-03 20:59 32.79646 -117.31338 3761 ft 256 kts 302°
2026-05-03 20:59 32.80718 -117.33087 4379 ft 266 kts 305°
2026-05-03 21:00 32.81862 -117.34858 5041 ft 272 kts 304°
2026-05-03 21:00 32.82635 -117.36044 5460 ft 276 kts 304°
2026-05-03 21:00 32.84235 -117.38504 6316 ft 285 kts 303°
2026-05-03 21:00 32.85457 -117.40388 6986 ft 288 kts 303°
2026-05-03 21:01 32.86680 -117.42277 7791 ft 288 kts 303°
2026-05-03 21:01 32.87891 -117.44152 8555 ft 290 kts 302°
2026-05-03 21:01 32.89124 -117.46063 9351 ft 292 kts 302°
2026-05-03 21:01 32.90361 -117.47986 10150 ft 294 kts 302°
2026-05-03 21:02 32.91635 -117.49974 10504 ft 313 kts 302°
2026-05-03 21:02 32.93007 -117.52119 10695 ft 336 kts 303°
2026-05-03 21:02 32.94449 -117.54366 11187 ft 345 kts 302°
2026-05-03 21:02 32.95916 -117.56652 11914 ft 347 kts 302°
2026-05-03 21:03 32.97389 -117.58944 12714 ft 348 kts 302°
2026-05-03 21:03 32.98864 -117.61244 13508 ft 351 kts 302°
2026-05-03 21:03 33.00334 -117.63536 14252 ft 353 kts 302°
2026-05-03 21:03 33.01826 -117.65863 14996 ft 355 kts 301°
2026-05-03 21:04 33.03329 -117.68201 15796 ft 355 kts 301°
2026-05-03 21:04 33.04832 -117.70545 16633 ft 355 kts 300°
2026-05-03 21:04 33.06348 -117.72887 17417 ft 358 kts 302°
2026-05-03 21:04 33.08119 -117.74994 18149 ft 367 kts 310°
2026-05-03 21:05 33.10096 -117.76957 18778 ft 372 kts 312°
2026-05-03 21:05 33.12118 -117.78898 19386 ft 374 kts 312°
2026-05-03 21:05 33.14140 -117.80874 20012 ft 375 kts 311°
2026-05-03 21:05 33.16138 -117.82882 20639 ft 376 kts 310°
2026-05-03 21:06 33.18134 -117.84912 21253 ft 378 kts 310°
2026-05-03 21:06 33.20095 -117.86950 21868 ft 377 kts 308°
2026-05-03 21:06 33.21992 -117.89123 22461 ft 377 kts 306°
2026-05-03 21:06 33.23850 -117.91354 23029 ft 378 kts 305°
2026-05-03 21:07 33.25698 -117.93602 23594 ft 380 kts 304°
2026-05-03 21:07 33.27558 -117.95865 24058 ft 382 kts 305°
2026-05-03 21:07 33.29430 -117.98133 24526 ft 384 kts 305°
2026-05-03 21:07 33.31318 -118.00409 24976 ft 386 kts 305°
2026-05-03 21:08 33.33222 -118.02697 25428 ft 388 kts 305°
2026-05-03 21:08 33.35113 -118.04964 25864 ft 390 kts 305°
2026-05-03 21:08 33.37035 -118.07267 26315 ft 392 kts 304°
2026-05-03 21:08 33.38971 -118.09587 26751 ft 394 kts 304°
2026-05-03 21:09 33.40913 -118.11914 27167 ft 396 kts 304°
2026-05-03 21:09 33.42872 -118.14263 27610 ft 398 kts 304°
2026-05-03 21:09 33.44835 -118.16619 28004 ft 400 kts 304°
2026-05-03 21:09 33.46807 -118.18985 28395 ft 402 kts 304°
2026-05-03 21:10 33.48759 -118.21331 28773 ft 404 kts 304°
2026-05-03 21:10 33.50756 -118.23729 29156 ft 406 kts 304°
2026-05-03 21:10 33.52759 -118.26134 29527 ft 408 kts 304°
2026-05-03 21:10 33.54765 -118.28546 29890 ft 409 kts 304°
2026-05-03 21:11 33.56776 -118.30966 30253 ft 411 kts 304°
2026-05-03 21:11 33.58800 -118.33403 30649 ft 410 kts 304°
2026-05-03 21:11 33.60805 -118.35816 31142 ft 406 kts 303°
2026-05-03 21:11 33.62769 -118.38179 31672 ft 402 kts 303°
2026-05-03 21:12 33.64739 -118.40554 32118 ft 399 kts 303°
2026-05-03 21:12 33.66698 -118.42923 32507 ft 398 kts 303°
2026-05-03 21:12 33.68644 -118.45279 32901 ft 397 kts 302°
2026-05-03 21:12 33.70592 -118.47638 33338 ft 394 kts 302°
2026-05-03 21:13 33.72522 -118.49975 33782 ft 392 kts 302°
2026-05-03 21:13 33.74417 -118.52272 34151 ft 391 kts 302°
2026-05-03 21:13 33.76344 -118.54614 34311 ft 395 kts 302°
2026-05-03 21:13 33.78282 -118.56973 34545 ft 396 kts 302°
2026-05-03 21:14 33.80200 -118.59305 34887 ft 394 kts 302°
2026-05-03 21:14 33.82124 -118.61642 35213 ft 393 kts 303°
2026-05-03 21:14 33.84046 -118.63979 35466 ft 393 kts 302°
2026-05-03 21:14 33.85966 -118.66327 35708 ft 394 kts 302°
2026-05-03 21:15 33.87884 -118.68673 35995 ft 393 kts 302°
2026-05-03 21:15 33.89810 -118.71024 36279 ft 393 kts 302°
2026-05-03 21:15 33.91733 -118.73372 36552 ft 393 kts 303°
2026-05-03 21:15 33.93635 -118.75696 36675 ft 396 kts 303°
2026-05-03 21:16 33.95592 -118.78076 36887 ft 397 kts 303°
2026-05-03 21:16 33.97534 -118.80435 37188 ft 396 kts 303°
2026-05-03 21:16 33.99474 -118.82802 37404 ft 396 kts 303°
2026-05-03 21:16 34.01387 -118.85144 37610 ft 397 kts 303°
2026-05-03 21:17 34.03325 -118.87520 37855 ft 396 kts 303°
2026-05-03 21:17 34.04605 -118.89090 38015 ft 396 kts 303°
2026-05-03 21:17 34.09097 -118.94606 38035 ft 401 kts 303°
2026-05-03 21:18 34.12943 -118.99425 38005 ft 400 kts 304°
2026-05-03 21:18 34.14848 -119.01832 38013 ft 388 kts 296°
2026-05-03 21:18 34.16320 -119.04502 38045 ft 379 kts 292°
2026-05-03 21:19 34.19037 -119.09960 38015 ft 378 kts 291°
2026-05-03 21:19 34.21739 -119.15375 38026 ft 378 kts 291°
2026-05-03 21:20 34.24499 -119.20802 38030 ft 379 kts 292°
2026-05-03 21:20 34.27269 -119.26214 38054 ft 381 kts 291°
2026-05-03 21:21 34.30073 -119.31692 38016 ft 383 kts 292°
2026-05-03 21:21 34.32899 -119.37189 38044 ft 386 kts 292°
2026-05-03 21:22 34.35725 -119.42705 38009 ft 387 kts 291°
2026-05-03 21:22 34.38549 -119.48291 38007 ft 389 kts 292°
2026-05-03 21:23 34.41548 -119.53808 38000 ft 398 kts 298°
2026-05-03 21:23 34.45455 -119.58675 37992 ft 406 kts 303°
2026-05-03 21:24 34.49423 -119.63524 37975 ft 403 kts 303°
2026-05-03 21:24 34.53369 -119.68328 38004 ft 402 kts 304°
2026-05-03 21:25 34.57287 -119.73119 37960 ft 395 kts 301°
2026-05-03 21:25 34.61067 -119.77921 37947 ft 396 kts 302°
2026-05-03 21:26 34.64961 -119.82720 38003 ft 402 kts 304°
2026-05-03 21:26 34.68947 -119.87556 38000 ft 405 kts 303°
2026-05-03 21:27 34.72876 -119.92448 37984 ft 407 kts 302°
2026-05-03 21:27 34.76795 -119.97381 37990 ft 402 kts 303°
2026-05-03 21:28 34.80669 -120.02146 38006 ft 395 kts 303°
2026-05-03 21:28 34.84529 -120.06935 38011 ft 396 kts 302°
2026-05-03 21:29 34.88380 -120.11733 38007 ft 396 kts 302°
2026-05-03 21:29 34.92219 -120.16566 38006 ft 396 kts 302°
2026-05-03 21:30 34.96052 -120.21356 38020 ft 397 kts 302°
2026-05-03 21:30 34.99930 -120.26175 38016 ft 397 kts 303°
2026-05-03 21:31 35.03832 -120.30981 38060 ft 392 kts 299°
2026-05-03 21:31 35.06933 -120.35079 38055 ft 398 kts 303°
2026-05-03 21:32 35.11634 -120.40538 38045 ft 402 kts 306°
2026-05-03 21:32 35.15080 -120.44360 38040 ft 402 kts 306°
2026-05-03 21:33 35.19193 -120.48955 38018 ft 399 kts 305°
2026-05-03 21:33 35.23287 -120.53544 38040 ft 397 kts 305°
2026-05-03 21:34 35.27363 -120.58131 38027 ft 398 kts 305°
2026-05-03 21:34 35.31416 -120.62698 38000 ft 399 kts 305°
2026-05-03 21:35 35.35507 -120.67314 38005 ft 400 kts 305°
2026-05-03 21:35 35.39598 -120.71940 38007 ft 400 kts 305°
2026-05-03 21:36 35.41649 -120.74245 37878 ft 397 kts 306°
2026-05-03 21:36 35.43605 -120.76568 37347 ft 391 kts 304°
2026-05-03 21:36 35.45593 -120.78813 36788 ft 393 kts 306°
2026-05-03 21:36 35.47621 -120.81059 36394 ft 390 kts 306°
2026-05-03 21:37 35.49733 -120.83185 36061 ft 395 kts 311°
2026-05-03 21:37 35.51950 -120.85149 35741 ft 391 kts 310°
2026-05-03 21:37 35.54116 -120.87139 35345 ft 386 kts 309°
2026-05-03 21:37 35.56250 -120.89129 34991 ft 382 kts 309°
2026-05-03 21:38 35.58360 -120.91097 34655 ft 380 kts 309°
2026-05-03 21:38 35.60443 -120.93038 34206 ft 379 kts 308°
2026-05-03 21:38 35.62527 -120.94994 33734 ft 377 kts 308°
2026-05-03 21:38 35.64613 -120.96940 33408 ft 372 kts 308°
2026-05-03 21:39 35.66668 -120.98848 33061 ft 368 kts 308°
2026-05-03 21:39 35.68702 -121.00736 32772 ft 362 kts 308°
2026-05-03 21:39 35.70707 -121.02600 32461 ft 358 kts 308°
2026-05-03 21:39 35.72656 -121.04417 32176 ft 353 kts 308°
2026-05-03 21:40 35.74602 -121.06238 31895 ft 350 kts 309°
2026-05-03 21:40 35.76531 -121.08049 31614 ft 345 kts 309°
2026-05-03 21:40 35.78439 -121.09832 31292 ft 343 kts 309°
2026-05-03 21:40 35.80327 -121.11601 31029 ft 338 kts 309°
2026-05-03 21:41 35.82201 -121.13362 30758 ft 341 kts 309°
2026-05-03 21:41 35.84123 -121.15176 30471 ft 355 kts 310°
2026-05-03 21:41 35.86109 -121.17055 30162 ft 364 kts 310°
2026-05-03 21:41 35.88122 -121.18939 29825 ft 360 kts 311°
2026-05-03 21:42 35.90110 -121.20792 29523 ft 355 kts 311°
2026-05-03 21:42 35.92043 -121.22598 29226 ft 351 kts 313°
2026-05-03 21:42 35.93977 -121.24411 28916 ft 347 kts 314°
2026-05-03 21:42 35.95895 -121.26212 28598 ft 343 kts 313°
2026-05-03 21:43 35.97787 -121.27994 28291 ft 341 kts 314°
2026-05-03 21:43 35.99673 -121.29777 28015 ft 337 kts 314°
2026-05-03 21:43 36.01548 -121.31525 27635 ft 339 kts 314°
2026-05-03 21:43 36.03407 -121.33286 27419 ft 348 kts 314°
2026-05-03 21:44 36.05369 -121.35153 27067 ft 358 kts 315°
2026-05-03 21:44 36.07356 -121.36993 26723 ft 357 kts 317°
2026-05-03 21:44 36.09427 -121.38694 26404 ft 356 kts 322°
2026-05-03 21:44 36.11525 -121.40307 26073 ft 354 kts 323°
2026-05-03 21:45 36.13625 -121.41897 25747 ft 352 kts 323°
2026-05-03 21:45 36.15708 -121.43480 25417 ft 350 kts 323°
2026-05-03 21:45 36.17745 -121.45042 25096 ft 347 kts 323°
2026-05-03 21:45 36.19785 -121.46621 24809 ft 343 kts 323°
2026-05-03 21:46 36.21810 -121.48191 24484 ft 342 kts 323°
2026-05-03 21:46 36.23828 -121.49761 24167 ft 341 kts 324°
2026-05-03 21:46 36.25835 -121.51327 23866 ft 339 kts 324°
2026-05-03 21:46 36.27828 -121.52888 23558 ft 338 kts 324°
2026-05-03 21:47 36.29804 -121.54432 23196 ft 337 kts 324°
2026-05-03 21:47 36.31784 -121.55980 22903 ft 334 kts 324°
2026-05-03 21:47 36.33745 -121.57515 22545 ft 332 kts 324°
2026-05-03 21:47 36.35693 -121.59042 22279 ft 330 kts 324°
2026-05-03 21:48 36.37619 -121.60552 21947 ft 331 kts 324°
2026-05-03 21:48 36.39568 -121.62083 21650 ft 334 kts 324°
2026-05-03 21:48 36.41561 -121.63651 21350 ft 344 kts 325°
2026-05-03 21:48 36.43605 -121.65258 20996 ft 349 kts 326°
2026-05-03 21:49 36.45658 -121.66869 20651 ft 348 kts 326°
2026-05-03 21:49 36.47706 -121.68478 20312 ft 347 kts 326°
2026-05-03 21:49 36.49753 -121.70089 19984 ft 345 kts 326°
2026-05-03 21:49 36.51762 -121.71673 19635 ft 345 kts 326°
2026-05-03 21:50 36.53783 -121.73271 19314 ft 344 kts 326°
2026-05-03 21:50 36.55799 -121.74864 18990 ft 343 kts 326°
2026-05-03 21:50 36.57810 -121.76455 18641 ft 342 kts 326°
2026-05-03 21:50 36.58452 -121.76963 18530 ft 342 kts 326°
2026-05-03 21:51 36.60342 -121.78459 18197 ft 342 kts 326°
2026-05-03 21:51 36.61012 -121.78990 18079 ft 342 kts 326°
2026-05-03 21:51 36.63013 -121.80576 17723 ft 340 kts 326°
2026-05-03 21:51 36.65011 -121.82160 17369 ft 339 kts 326°
2026-05-03 21:52 36.66998 -121.83736 17032 ft 337 kts 326°
2026-05-03 21:52 36.68953 -121.85288 16707 ft 335 kts 326°
2026-05-03 21:52 36.70918 -121.86849 16387 ft 333 kts 326°
2026-05-03 21:52 36.72870 -121.88400 16093 ft 332 kts 326°
2026-05-03 21:53 36.74928 -121.89736 15757 ft 340 kts 343°
2026-05-03 21:53 36.77292 -121.90419 15480 ft 362 kts 348°
2026-05-03 21:53 36.79815 -121.91074 15089 ft 367 kts 348°
2026-05-03 21:53 36.82286 -121.91724 14728 ft 366 kts 347°
2026-05-03 21:54 36.84780 -121.92396 14365 ft 365 kts 347°
2026-05-03 21:54 36.87259 -121.93079 14006 ft 364 kts 347°
2026-05-03 21:54 36.89736 -121.93769 13632 ft 363 kts 347°
2026-05-03 21:54 36.92211 -121.94461 13236 ft 362 kts 347°
2026-05-03 21:55 36.94665 -121.95149 12869 ft 361 kts 347°
2026-05-03 21:55 36.97087 -121.95938 12504 ft 357 kts 343°
2026-05-03 21:55 36.99391 -121.96828 12147 ft 343 kts 342°
2026-05-03 21:55 37.01620 -121.97728 11822 ft 331 kts 341°
2026-05-03 21:56 37.03771 -121.98598 11503 ft 320 kts 342°
2026-05-03 21:56 37.05863 -121.99436 11203 ft 310 kts 342°
2026-05-03 21:56 37.07872 -122.00234 10904 ft 301 kts 342°
2026-05-03 21:56 37.09856 -122.01017 10624 ft 295 kts 342°
2026-05-03 21:57 37.11810 -122.01785 10355 ft 297 kts 342°
2026-05-03 21:57 37.13796 -122.02564 10077 ft 300 kts 342°
2026-05-03 21:57 37.15770 -122.03338 9757 ft 300 kts 343°
2026-05-03 21:57 37.17764 -122.04121 9432 ft 299 kts 343°
2026-05-03 21:58 37.19755 -122.04901 9137 ft 298 kts 343°
2026-05-03 21:58 37.21721 -122.05669 8823 ft 296 kts 343°
2026-05-03 21:58 37.23683 -122.06434 8523 ft 294 kts 343°
2026-05-03 21:58 37.25630 -122.07200 8255 ft 292 kts 343°
2026-05-03 21:59 37.27539 -122.07931 8070 ft 287 kts 344°
2026-05-03 21:59 37.29434 -122.08613 7905 ft 281 kts 344°
2026-05-03 21:59 37.31322 -122.09283 7658 ft 280 kts 344°
2026-05-03 21:59 37.33187 -122.09943 7389 ft 278 kts 345°
2026-05-03 22:00 37.35059 -122.10609 7053 ft 281 kts 345°
2026-05-03 22:00 37.36933 -122.11280 6772 ft 280 kts 345°
2026-05-03 22:00 37.38754 -122.11936 6650 ft 265 kts 345°
2026-05-03 22:00 37.40512 -122.12568 6365 ft 261 kts 345°
2026-05-03 22:01 37.42243 -122.13190 6030 ft 257 kts 345°
2026-05-03 22:01 37.43954 -122.13806 5662 ft 255 kts 345°
2026-05-03 22:01 37.45651 -122.14418 5160 ft 258 kts 344°
2026-05-03 22:01 37.47389 -122.15044 4630 ft 262 kts 344°
2026-05-03 22:02 37.49186 -122.15692 3906 ft 273 kts 343°
2026-05-03 22:02 37.50980 -122.16340 3611 ft 264 kts 343°
2026-05-03 22:02 37.52705 -122.16984 3422 ft 251 kts 337°
2026-05-03 22:02 37.54035 -122.18239 3133 ft 237 kts 301°
2026-05-03 22:03 37.54804 -122.20023 2820 ft 225 kts 295°
2026-05-03 22:03 37.55511 -122.21710 2528 ft 209 kts 296°
2026-05-03 22:03 37.56173 -122.23280 2257 ft 197 kts 295°
2026-05-03 22:03 37.56790 -122.24761 2008 ft 183 kts 295°
2026-05-03 22:04 37.57364 -122.26141 1778 ft 173 kts 295°
2026-05-03 22:04 37.57904 -122.27439 1544 ft 165 kts 295°
2026-05-03 22:04 37.58423 -122.28684 1326 ft 156 kts 295°
2026-05-03 22:04 37.58909 -122.29850 1103 ft 146 kts 296°
2026-05-03 22:05 37.59370 -122.30956 909 ft 141 kts 294°
2026-05-03 22:05 37.59832 -122.32059 725 ft 144 kts 294°
2026-05-03 22:05 37.60310 -122.33173 581 ft 146 kts 294°
2026-05-03 22:05 37.60789 -122.34297 365 ft 144 kts 292°
2026-05-03 22:06 37.61234 -122.35424 162 ft 144 kts 290°
2026-05-03 22:06 37.61702 -122.36532 18 ft 138 kts 293°
2026-05-03 22:06 37.62087 -122.37466 17 ft 98 kts 297°
2026-05-03 22:06 37.62340 -122.38064 20 ft 56 kts 298°
2026-05-03 22:07 37.62468 -122.38374 19 ft 29 kts 294°
2026-05-03 22:07 37.62503 -122.38582 18 ft 17 kts 270°
2026-05-03 22:07 37.62500 -122.38716 18 ft 7 kts 268°
2026-05-03 22:07 37.62499 -122.38749 18 ft 0 kts 268°
2026-05-03 22:09 37.62497 -122.38790 18 ft 11 kts 264°
2026-05-03 22:09 37.62428 -122.38893 17 ft 21 kts 207°
2026-05-03 22:10 37.62366 -122.39055 14 ft 9 kts 338°
2026-05-03 22:10 37.62415 -122.39096 15 ft 9 kts 295°
2026-05-03 22:10 37.62433 -122.39157 16 ft 2 kts 287°
2026-05-03 22:10 37.62446 -122.39161 17 ft 2 kts 17°
2026-05-03 22:11 37.62443 -122.39144 16 ft 3 kts 126°
2026-05-03 22:11 37.62422 -122.39109 15 ft 8 kts 128°
2026-05-03 22:11 37.62385 -122.39024 14 ft 10 kts 116°
2026-05-03 22:11 37.62325 -122.38967 16 ft 13 kts 186°
2026-05-03 22:12 37.62247 -122.39027 15 ft 11 kts 245°
2026-05-03 22:12 37.62196 -122.39065 15 ft 9 kts 174°
2026-05-03 22:12 37.62166 -122.39054 15 ft 0 kts 162°